ASTRA 1P (SES-24)

Last updated on Thu Jul 03 2025 00:02:49 GMT+0000 (Coordinated Universal Time)

1 60086U 24115A 25183.49908968 .00000127 00000+0 00000+0 0 9993 2 60086 0.0710 322.7219 0001978 75.4752 81.4441 1.00270755 3698
UTC large
Height (km)
Speed (km/s)
/
Latitude / Longitude
Inclination (degrees)
Orbital Period (minutes)
Azimuth
Elevation
Range (km)
Doppler Factor

Next 0 passes for location: London (51.5072 / 0.1276)

Sorry there are no passes over London.